Boerne, TX

7:41 AM CDT on September 28, 2016 (GMT -0500)
Boerne Stage Field

Weather History for K5C1 - June, 2013

Change the Weather History Date:

Wednesday, June 26, 2013

  Actual Average (KSAT) Record (KSAT)
Temperature  
Mean Temperature 83 °F 84 °F  
Max Temperature 93 °F 93 °F 106 °F (2012)
Min Temperature 73 °F 74 °F 59 °F (1974)
Degree Days  
Heating Degree Days 0 0  
Month to date heating degree days 0  
Since 1 June heating degree days 0  
Since 1 July heating degree days 1496  
Cooling Degree Days 18 19  
Month to date cooling degree days 448  
Year to date cooling degree days 1077  
Since 1 June cooling degree days 448  
Growing Degree Days 33 (Base 50)    
Moisture  
Dew Point 66 °F    
Average Humidity 61    
Maximum Humidity 83    
Minimum Humidity 34    
Precipitation  
Precipitation 0.00 in 0.13 in 3.51 in (1919)
Month to date precipitation 3.67  
Year to date precipitation 15.64  
Snow  
Snow 0.00 in - - ()
Month to date snowfall  
Since 1 June snowfall  
Since 1 July snowfall  
Snow Depth -    
Sea Level Pressure  
Sea Level Pressure 29.99 in    
Wind  
Wind Speed 9 mph (South)    
Max Wind Speed 15 mph    
Max Gust Speed 22 mph    
Visibility 10 miles    
Events      
T = Trace of Precipitation, MM = Missing Value Source: NWS Daily Summary

Daily Weather History Graph

Daily Weather History Graph

Search for Another Location

Airport or City:

Trip Planner

Search our weather history database for the weather conditions in past years. The results will help you decide how hot, cold, wet, or windy it might be!

Date:

Astronomy

Jun. 26, 2013 Rise Set
Actual Time 6:36 AM CDT 8:39 PM CDT
Civil Twilight 6:08 AM CDT 9:06 PM CDT
Nautical Twilight 5:35 AM CDT 9:39 PM CDT
Astronomical Twilight 5:00 AM CDT 10:15 PM CDT
Moon 11:23 PM CDT (6/26) 10:12 AM CDT (6/26)
Length of Visible Light 14h 57m
Length of Day
14h 02m
Waning Gibbous, 85% of the Moon is Illuminated
Jun 26
Waning Gibbous
Jun 29
Last Quarter
Jul 8
New
Jul 15
First Quarter
Jul 22
Full

Hourly Weather History & Observations

Time (CDT) Temp. Heat Index Dew Point Humidity Pressure Visibility Wind Dir Wind Speed Gust Speed Precip Events Conditions
12:15 AM 77.0 °F - 66.2 °F 69% 30.00 in 10.0 mi SSE 8.1 mph - N/A   Clear
12:35 AM 77.0 °F - 64.4 °F 65% 30.00 in 10.0 mi South 5.8 mph - N/A   Clear
12:55 AM 75.2 °F - 64.4 °F 69% 30.00 in 10.0 mi SSE 5.8 mph - N/A   Clear
1:15 AM 73.4 °F - 66.2 °F 78% 29.98 in 10.0 mi SSE 12.7 mph 17.3 mph N/A   Clear
1:35 AM 73.4 °F - 66.2 °F 78% 29.98 in 10.0 mi South 10.4 mph 21.9 mph N/A   Clear
1:55 AM 73.4 °F - 66.2 °F 78% 29.97 in 10.0 mi SSE 11.5 mph 18.4 mph N/A   Scattered Clouds
2:15 AM 73.4 °F - 68.0 °F 83% 29.97 in 10.0 mi South 9.2 mph 16.1 mph N/A   Mostly Cloudy
2:35 AM 73.4 °F - 68.0 °F 83% 29.97 in 10.0 mi South 12.7 mph 20.7 mph N/A   Overcast
2:55 AM 73.4 °F - 68.0 °F 83% 29.98 in 10.0 mi South 15.0 mph 20.7 mph N/A   Overcast
3:15 AM 73.4 °F - 68.0 °F 83% 29.99 in 10.0 mi South 11.5 mph 17.3 mph N/A   Overcast
3:35 AM 73.4 °F - 68.0 °F 83% 29.98 in 10.0 mi South 8.1 mph 17.3 mph N/A   Overcast
3:55 AM 73.4 °F - 68.0 °F 83% 29.98 in 10.0 mi SSE 9.2 mph 16.1 mph N/A   Overcast
4:15 AM 73.4 °F - 68.0 °F 83% 29.98 in 10.0 mi South 10.4 mph - N/A   Overcast
4:35 AM 73.4 °F - 68.0 °F 83% 29.97 in 10.0 mi South 10.4 mph 16.1 mph N/A   Overcast
4:55 AM 73.4 °F - 68.0 °F 83% 29.98 in 10.0 mi South 8.1 mph - N/A   Overcast
5:15 AM 73.4 °F - 68.0 °F 83% 29.98 in 10.0 mi South 6.9 mph 17.3 mph N/A   Overcast
5:35 AM 73.4 °F - 68.0 °F 83% 29.98 in 10.0 mi South 8.1 mph 17.3 mph N/A   Overcast
5:55 AM 73.4 °F - 68.0 °F 83% 29.99 in 10.0 mi South 11.5 mph 21.9 mph N/A   Overcast
6:15 AM 73.4 °F - 68.0 °F 83% 29.99 in 10.0 mi South 11.5 mph 16.1 mph N/A   Overcast
6:35 AM 73.4 °F - 68.0 °F 83% 30.00 in 10.0 mi South 11.5 mph 16.1 mph N/A   Overcast
6:55 AM 73.4 °F - 68.0 °F 83% 30.00 in 10.0 mi South 8.1 mph - N/A   Overcast
7:15 AM 73.4 °F - 68.0 °F 83% 30.01 in 10.0 mi South 9.2 mph - N/A   Overcast
7:35 AM 75.2 °F - 68.0 °F 78% 30.01 in 10.0 mi South 5.8 mph - N/A   Overcast
7:55 AM 75.2 °F - 68.0 °F 78% 30.02 in 10.0 mi South 8.1 mph - N/A   Overcast
8:15 AM 75.2 °F - 69.8 °F 83% 30.02 in 10.0 mi South 6.9 mph 16.1 mph N/A   Overcast
8:35 AM 75.2 °F - 69.8 °F 83% 30.02 in 10.0 mi South 6.9 mph - N/A   Overcast
8:55 AM 75.2 °F - 69.8 °F 83% 30.02 in 10.0 mi South 9.2 mph - N/A   Overcast
9:15 AM 77.0 °F - 69.8 °F 78% 30.03 in 10.0 mi South 9.2 mph - N/A   Overcast
9:55 AM 78.8 °F - 68.0 °F 69% 30.02 in 10.0 mi South 9.2 mph 18.4 mph N/A   Overcast
10:15 AM 78.8 °F - 68.0 °F 69% 30.02 in 10.0 mi South 10.4 mph 16.1 mph N/A   Overcast
10:35 AM 80.6 °F 83.2 °F 68.0 °F 65% 30.02 in 10.0 mi South 12.7 mph 18.4 mph N/A   Overcast
10:55 AM 80.6 °F 83.2 °F 68.0 °F 65% 30.02 in 10.0 mi South 9.2 mph - N/A   Overcast
11:15 AM 82.4 °F 85.4 °F 68.0 °F 62% 30.02 in 10.0 mi SSE 10.4 mph 17.3 mph N/A   Overcast
11:35 AM 82.4 °F 85.4 °F 68.0 °F 62% 30.02 in 10.0 mi South 11.5 mph 17.3 mph N/A   Mostly Cloudy
11:55 AM 84.2 °F 87.3 °F 68.0 °F 58% 30.02 in 10.0 mi South 8.1 mph - N/A   Mostly Cloudy
12:15 PM 84.2 °F 87.3 °F 68.0 °F 58% 30.02 in 10.0 mi SSE 6.9 mph 17.3 mph N/A   Mostly Cloudy
12:35 PM 86.0 °F 89.4 °F 68.0 °F 55% 30.02 in 10.0 mi SSW 11.5 mph 16.1 mph N/A   Mostly Cloudy
12:55 PM 86.0 °F 89.4 °F 68.0 °F 55% 30.02 in 10.0 mi South 11.5 mph - N/A   Scattered Clouds
1:15 PM 87.8 °F 91.4 °F 68.0 °F 52% 30.01 in 10.0 mi SSE 6.9 mph - N/A   Scattered Clouds
1:35 PM 87.8 °F 91.4 °F 68.0 °F 52% 30.01 in 10.0 mi SSE 9.2 mph - N/A   Scattered Clouds
1:55 PM 89.6 °F 93.4 °F 68.0 °F 49% 30.01 in 10.0 mi South 9.2 mph - N/A   Scattered Clouds
2:15 PM 89.6 °F 93.4 °F 68.0 °F 49% 30.00 in 10.0 mi South 9.2 mph - N/A   Scattered Clouds
2:35 PM 89.6 °F 92.2 °F 66.2 °F 46% 30.00 in 10.0 mi SSE 13.8 mph 19.6 mph N/A   Scattered Clouds
2:55 PM 91.4 °F 95.4 °F 68.0 °F 46% 29.99 in 10.0 mi SSE 8.1 mph - N/A   Scattered Clouds
3:15 PM 91.4 °F 94.0 °F 66.2 °F 43% 29.98 in 10.0 mi South 8.1 mph 16.1 mph N/A   Scattered Clouds
3:35 PM 91.4 °F 94.0 °F 66.2 °F 43% 29.98 in 10.0 mi SSE 9.2 mph - N/A   Scattered Clouds
3:55 PM 91.4 °F 93.2 °F 64.4 °F 41% 29.97 in 10.0 mi SE 13.8 mph 18.4 mph N/A   Clear
4:15 PM 91.4 °F 93.2 °F 64.4 °F 41% 29.96 in 10.0 mi SSE 8.1 mph - N/A   Clear
4:35 PM 93.2 °F 94.9 °F 64.4 °F 38% 29.96 in 10.0 mi South 13.8 mph 17.3 mph N/A   Clear
4:55 PM 93.2 °F 94.1 °F 62.6 °F 36% 29.96 in 10.0 mi South 9.2 mph - N/A   Clear
5:15 PM 93.2 °F 94.1 °F 62.6 °F 36% 29.95 in 10.0 mi SSE 10.4 mph - N/A   Clear
5:35 PM 93.2 °F 94.1 °F 62.6 °F 36% 29.95 in 10.0 mi South 12.7 mph 17.3 mph N/A   Clear
5:55 PM 93.2 °F 93.3 °F 60.8 °F 34% 29.94 in 10.0 mi SE 9.2 mph 17.3 mph N/A   Clear
6:15 PM 93.2 °F 93.3 °F 60.8 °F 34% 29.94 in 10.0 mi South 9.2 mph - N/A   Clear
6:35 PM 93.2 °F 93.3 °F 60.8 °F 34% 29.94 in 10.0 mi SSE 8.1 mph - N/A   Clear
6:55 PM 91.4 °F 90.7 °F 59.0 °F 34% 29.94 in 10.0 mi SSE 9.2 mph 17.3 mph N/A   Clear
7:15 PM 91.4 °F 91.4 °F 60.8 °F 36% 29.94 in 10.0 mi South 10.4 mph 16.1 mph N/A   Clear
7:35 PM 91.4 °F 91.4 °F 60.8 °F 36% 29.94 in 10.0 mi South 6.9 mph - N/A   Clear
7:55 PM 89.6 °F 89.5 °F 60.8 °F 38% 29.94 in 10.0 mi SSE 3.5 mph - N/A   Clear
8:15 PM 87.8 °F 87.6 °F 60.8 °F 40% 29.94 in 10.0 mi SSE 4.6 mph - N/A   Clear
8:35 PM 86.0 °F 86.6 °F 62.6 °F 45% 29.94 in 10.0 mi SE 4.6 mph - N/A   Clear
8:55 PM 86.0 °F 87.3 °F 64.4 °F 48% 29.94 in 10.0 mi SSE 5.8 mph - N/A   Clear
9:15 PM 86.0 °F 87.3 °F 64.4 °F 48% 29.95 in 10.0 mi SSE 4.6 mph - N/A   Clear
9:35 PM 86.0 °F 87.3 °F 64.4 °F 48% 29.95 in 10.0 mi SSE 6.9 mph - N/A   Clear
9:55 PM 86.0 °F 88.2 °F 66.2 °F 51% 29.96 in 10.0 mi SSE 8.1 mph - N/A   Clear
10:15 PM 84.2 °F 85.6 °F 64.4 °F 51% 29.97 in 10.0 mi SSE 5.8 mph - N/A   Clear
10:35 PM 82.4 °F 83.9 °F 64.4 °F 54% 29.99 in 10.0 mi SSE 8.1 mph - N/A   Clear
10:55 PM 82.4 °F 84.6 °F 66.2 °F 58% 29.99 in 10.0 mi SSE 12.7 mph 19.6 mph N/A   Clear
11:15 PM 80.6 °F 83.2 °F 68.0 °F 65% 30.00 in 10.0 mi SSE 9.2 mph - N/A   Clear
11:35 PM 80.6 °F 83.2 °F 68.0 °F 65% 30.01 in 10.0 mi SSE 8.1 mph - N/A   Clear
11:55 PM 78.8 °F - 68.0 °F 69% 30.01 in 10.0 mi SSE 6.9 mph - N/A   Clear